datetime,release volume
2006-10-02,1632.39669
2006-10-03,1610.57851
2006-10-04,1499.50413
2006-10-05,1297.19008
2006-10-06,1283.30579
2006-10-07,1176.19835
2006-10-08,1176.19835
2006-10-09,906.44628
2006-10-10,355.04132
2006-10-11,43.63636
2006-10-12,5.35537
2006-10-13,5.35537
2006-10-14,5.35537
2006-10-15,5.35537
2006-10-16,5.35537
2006-10-17,5.35537
2006-10-18,5.35537
2006-10-19,5.35537
2006-10-20,5.35537
2006-10-21,5.35537
2006-10-22,5.35537
2006-10-23,5.35537
2006-10-24,5.35537
2006-10-25,5.35537
2006-10-26,5.35537
2006-10-27,5.35537
2006-10-28,5.35537
2006-10-29,5.35537
2006-10-30,5.35537
2006-10-31,5.35537
2006-11-01,5.35537
2006-11-02,5.35537
2006-11-03,5.35537
2006-11-04,5.35537
2006-11-05,5.35537
2006-11-06,5.35537
2006-11-07,5.35537
2006-11-08,5.35537
2006-11-09,5.35537
2006-11-10,5.35537
2006-11-11,5.35537
2006-11-12,5.35537
2006-11-13,5.35537
2006-11-14,5.35537
2006-11-15,5.35537
2006-11-16,3.96694
2006-11-17,3.96694
2006-11-18,3.96694
2006-11-19,3.96694
2006-11-20,3.96694
2006-11-21,3.96694
2006-11-22,3.96694
2006-11-23,3.96694
2006-11-24,3.96694
2006-11-25,3.96694
2006-11-26,3.96694
2006-11-27,3.96694
2006-11-28,3.96694
2006-11-29,3.96694
2006-11-30,3.96694
2006-12-01,3.96694
2006-12-02,3.96694
2006-12-03,3.96694
2006-12-04,3.96694
2006-12-05,3.96694
2006-12-06,3.96694
2006-12-07,3.96694
2006-12-08,3.96694
2006-12-09,3.96694
2006-12-10,3.96694
2006-12-11,3.96694
2006-12-12,3.96694
2006-12-13,3.96694
2006-12-14,3.96694
2006-12-15,3.96694
2006-12-16,3.96694
2006-12-17,3.96694
2006-12-18,3.96694
2006-12-19,3.96694
2006-12-20,3.96694
2006-12-21,3.96694
2006-12-22,3.96694
2006-12-23,3.96694
2006-12-24,3.96694
2006-12-25,3.96694
2006-12-26,3.96694
2006-12-27,3.96694
2006-12-28,3.96694
2006-12-29,3.96694
2006-12-30,3.96694
2006-12-31,3.96694
2007-01-01,5.95041
2007-01-02,5.95041
2007-01-03,5.95041
2007-01-04,5.95041
2007-01-05,5.95041
2007-01-06,5.95041
2007-01-07,5.95041
2007-01-08,5.95041
2007-01-09,5.95041
2007-01-10,5.95041
2007-01-11,5.95041
2007-01-12,5.95041
2007-01-13,5.95041
2007-01-14,5.95041
2007-01-15,5.95041
2007-01-16,5.95041
2007-01-17,5.95041
2007-01-18,5.95041
2007-01-19,5.95041
2007-01-20,5.95041
2007-01-21,5.95041
2007-01-22,5.95041
2007-01-23,5.95041
2007-01-24,5.95041
2007-01-25,5.95041
2007-01-26,5.95041
2007-01-27,5.95041
2007-01-28,5.95041
2007-01-29,5.95041
2007-01-30,5.95041
2007-01-31,5.95041
2007-02-01,5.95041
2007-02-02,5.95041
2007-02-03,5.95041
2007-02-04,5.95041
2007-02-05,5.95041
2007-02-06,5.95041
2007-02-07,5.95041
2007-02-08,5.95041
2007-02-09,5.95041
2007-02-10,5.95041
2007-02-11,5.95041
2007-02-12,5.95041
2007-02-13,5.95041
2007-02-14,5.95041
2007-02-15,5.95041
2007-02-16,5.95041
2007-02-17,5.95041
2007-02-18,5.95041
2007-02-19,5.95041
2007-02-20,5.95041
2007-02-21,5.95041
2007-02-22,5.95041
2007-02-23,5.95041
2007-02-24,5.95041
2007-02-25,5.95041
2007-02-26,5.95041
2007-02-27,5.95041
2007-02-28,5.95041
2007-03-01,5.95041
2007-03-02,5.95041
2007-03-03,5.95041
2007-03-04,5.95041
2007-03-05,5.95041
2007-03-06,5.95041
2007-03-07,1112.72727
2007-03-08,1806.94215
2007-03-09,1662.14876
2007-03-10,1525.28926
2007-03-11,1533.22314
2007-03-12,1993.38843
2007-03-13,2233.38843
2007-03-14,2501.15702
2007-03-15,2762.97521
2007-03-16,2820.49587
2007-03-17,2883.96694
2007-03-18,2878.01653
2007-03-19,3165.61983
2007-03-20,3570.24793
2007-03-21,3847.93388
2007-03-22,3949.09091
2007-03-23,3974.87603
2007-03-24,3982.80992
2007-03-25,3947.10744
2007-03-26,3719.00826
2007-03-27,3919.33884
2007-03-28,4262.47934
2007-03-29,4395.3719
2007-03-30,4115.70248
2007-03-31,3889.58678
2007-04-01,3911.40496
2007-04-02,3514.71074
2007-04-03,3256.8595
2007-04-04,2953.38843
2007-04-05,2961.32231
2007-04-06,2874.04959
2007-04-07,2818.5124
2007-04-08,2842.31405
2007-04-09,2907.7686
2007-04-10,2711.40496
2007-04-11,2515.04132
2007-04-12,2753.05785
2007-04-13,2560.66116
2007-04-14,2072.72727
2007-04-15,1967.60331
2007-04-16,2052.89256
2007-04-17,2292.89256
2007-04-18,2548.76033
2007-04-19,2396.03306
2007-04-20,2098.5124
2007-04-21,1993.38843
2007-04-22,1991.40496
2007-04-23,2003.30579
2007-04-24,1991.40496
2007-04-25,1985.45455
2007-04-26,1995.3719
2007-04-27,2078.67769
2007-04-28,2114.38017
2007-04-29,1945.78512
2007-04-30,1995.3719
2007-05-01,1789.09091
2007-05-02,1618.5124
2007-05-03,1755.3719
2007-05-04,1723.63636
2007-05-05,1610.57851
2007-05-06,1519.33884
2007-05-07,1564.95868
2007-05-08,1804.95868
2007-05-09,1985.45455
2007-05-10,1957.68595
2007-05-11,1925.95041
2007-05-12,1666.1157
2007-05-13,1529.2562
2007-05-14,1753.38843
2007-05-15,2066.77686
2007-05-16,1721.65289
2007-05-17,1376.52893
2007-05-18,1406.28099
2007-05-19,1406.28099
2007-05-20,1432.06612
2007-05-21,1428.09917
2007-05-22,1818.84298
2007-05-23,2122.31405
2007-05-24,2070.7438
2007-05-25,1925.95041
2007-05-26,1872.39669
2007-05-27,1876.36364
2007-05-28,1890.24793
2007-05-29,2142.14876
2007-05-30,2675.70248
2007-05-31,2836.36364
2007-06-01,3096.19835
2007-06-02,3356.03306
2007-06-03,3356.03306
2007-06-04,3288.59504
2007-06-05,3304.46281
2007-06-06,3322.31405
2007-06-07,3294.54545
2007-06-08,3352.06612
2007-06-09,3336.19835
2007-06-10,3256.8595
2007-06-11,3356.03306
2007-06-12,3435.3719
2007-06-13,3578.18182
2007-06-14,3469.09091
2007-06-15,3256.8595
2007-06-16,3233.05785
2007-06-17,3239.00826
2007-06-18,3332.2314
2007-06-19,3401.65289
2007-06-20,3631.73554
2007-06-21,3778.5124
2007-06-22,3538.5124
2007-06-23,3431.40496
2007-06-24,3431.40496
2007-06-25,3457.19008
2007-06-26,3457.19008
2007-06-27,3752.72727
2007-06-28,3990.7438
2007-06-29,3968.92562
2007-06-30,4081.98347
2007-07-01,4093.8843
2007-07-02,4006.61157
2007-07-03,3883.63636
2007-07-04,3883.63636
2007-07-05,3853.8843
2007-07-06,3883.63636
2007-07-07,3923.30579
2007-07-08,3927.27273
2007-07-09,3764.6281
2007-07-10,3744.79339
2007-07-11,3699.17355
2007-07-12,3554.38017
2007-07-13,3133.8843
2007-07-14,2741.15702
2007-07-15,2620.16529
2007-07-16,2661.81818
2007-07-17,2719.33884
2007-07-18,2971.23967
2007-07-19,3270.7438
2007-07-20,3292.56198
2007-07-21,3292.56198
2007-07-22,3286.61157
2007-07-23,3282.64463
2007-07-24,3294.54545
2007-07-25,3320.33058
2007-07-26,3320.33058
2007-07-27,3207.27273
2007-07-28,3114.04959
2007-07-29,3120.0
2007-07-30,3123.96694
2007-07-31,2824.46281
2007-08-01,2701.4876
2007-08-02,2786.77686
2007-08-03,2542.80992
2007-08-04,2284.95868
2007-08-05,2288.92562
2007-08-06,2501.15702
2007-08-07,2602.31405
2007-08-08,2620.16529
2007-08-09,2727.27273
2007-08-10,3062.47934
2007-08-11,3385.78512
2007-08-12,3367.93388
2007-08-13,3689.2562
2007-08-14,3968.92562
2007-08-15,4032.39669
2007-08-16,4072.06612
2007-08-17,3804.29752
2007-08-18,3520.66116
2007-08-19,3492.89256
2007-08-20,3732.89256
2007-08-21,3951.07438
2007-08-22,4361.65289
2007-08-23,4365.61983
2007-08-24,4078.01653
2007-08-25,3982.80992
2007-08-26,3966.94215
2007-08-27,3935.20661
2007-08-28,3707.10744
2007-08-29,3367.93388
2007-08-30,3137.85124
2007-08-31,3157.68595
2007-09-01,3149.75207
2007-09-02,3125.95041
2007-09-03,3110.08264
2007-09-04,3102.14876
2007-09-05,3177.52066
2007-09-06,3320.33058
2007-09-07,3292.56198
2007-09-08,3415.53719
2007-09-09,3391.73554
2007-09-10,3235.04132
2007-09-11,3004.95868
2007-09-12,2878.01653
2007-09-13,2685.61983
2007-09-14,2401.98347
2007-09-15,2286.94215
2007-09-16,2282.97521
2007-09-17,2279.00826
2007-09-18,2205.61983
2007-09-19,1799.00826
2007-09-20,1969.58678
2007-09-21,1977.52066
2007-09-22,2025.12397
2007-09-23,2031.07438
2007-09-24,2177.85124
2007-09-25,2221.4876
2007-09-26,2286.94215
2007-09-27,2292.89256
2007-09-28,2019.17355
2007-09-29,1882.31405
2007-09-30,1860.49587
2007-10-01,1953.71901
2007-10-02,2189.75207
2007-10-03,2318.67769
2007-10-04,2306.77686
2007-10-05,2064.79339
2007-10-06,1787.10744
2007-10-07,1751.40496
2007-10-08,1749.42149
2007-10-09,1779.17355
2007-10-10,1943.80165
2007-10-11,2011.23967
2007-10-12,2181.81818
2007-10-13,2477.35537
2007-10-14,2413.8843
2007-10-15,2364.29752
2007-10-16,2275.04132
2007-10-17,1414.21488
2007-10-18,614.87603
2007-10-19,410.57851
2007-10-20,398.67769
2007-10-21,402.64463
2007-10-22,386.77686
2007-10-23,392.72727
2007-10-24,384.79339
2007-10-25,384.79339
2007-10-26,204.29752
2007-10-27,3.96694
2007-10-28,3.96694
2007-10-29,3.96694
2007-10-30,3.96694
2007-10-31,3.96694
2007-11-01,3.96694
2007-11-02,3.96694
2007-11-03,3.96694
2007-11-04,3.96694
2007-11-05,3.96694
2007-11-06,3.96694
2007-11-07,3.96694
2007-11-08,3.96694
2007-11-09,3.96694
2007-11-10,3.96694
2007-11-11,3.96694
2007-11-12,3.96694
2007-11-13,3.96694
2007-11-14,3.96694
2007-11-15,3.96694
2007-11-16,3.96694
2007-11-17,3.96694
2007-11-18,3.96694
2007-11-19,3.96694
2007-11-20,3.96694
2007-11-21,3.96694
2007-11-22,3.96694
2007-11-23,3.96694
2007-11-24,3.96694
2007-11-25,3.96694
2007-11-26,3.96694
2007-11-27,3.96694
2007-11-28,3.96694
2007-11-29,3.96694
2007-11-30,3.96694
2007-12-01,3.96694
2007-12-02,3.96694
2007-12-03,3.96694
2007-12-04,3.96694
2007-12-05,3.96694
2007-12-06,3.96694
2007-12-07,3.96694
2007-12-08,3.96694
2007-12-09,3.96694
2007-12-10,3.96694
2007-12-11,3.96694
2007-12-12,3.96694
2007-12-13,3.96694
2007-12-14,3.96694
2007-12-15,3.96694
2007-12-16,3.96694
2007-12-17,3.96694
2007-12-18,3.96694
2007-12-19,3.96694
2007-12-20,3.96694
2007-12-21,3.96694
2007-12-22,3.96694
2007-12-23,3.96694
2007-12-24,3.96694
2007-12-25,3.96694
2007-12-26,3.96694
2007-12-27,3.96694
2007-12-28,3.96694
2007-12-29,3.96694
2007-12-30,3.96694
2007-12-31,3.96694
2008-01-01,3.96694
2008-01-02,3.96694
2008-01-03,3.96694
2008-01-04,3.96694
2008-01-05,3.96694
2008-01-06,3.96694
2008-01-07,3.96694
2008-01-08,3.96694
2008-01-09,3.96694
2008-01-10,3.96694
2008-01-11,3.96694
2008-01-12,3.96694
2008-01-13,3.96694
2008-01-14,3.96694
2008-01-15,3.96694
2008-01-16,3.96694
2008-01-17,3.96694
2008-01-18,3.96694
2008-01-19,3.96694
2008-01-20,3.96694
2008-01-21,3.96694
2008-01-22,3.96694
2008-01-23,3.96694
2008-01-24,3.96694
2008-01-25,3.96694
2008-01-26,3.96694
2008-01-27,3.96694
2008-01-28,3.96694
2008-01-29,3.96694
2008-01-30,3.96694
2008-01-31,3.96694
2008-02-01,3.96694
2008-02-02,3.96694
2008-02-03,3.96694
2008-02-04,3.96694
2008-02-05,3.96694
2008-02-06,3.96694
2008-02-07,3.96694
2008-02-08,3.96694
2008-02-09,3.96694
2008-02-10,3.96694
2008-02-11,3.96694
2008-02-12,3.96694
2008-02-13,3.96694
2008-02-14,3.96694
2008-02-15,3.96694
2008-02-16,3.96694
2008-02-17,3.96694
2008-02-18,3.96694
2008-02-19,3.96694
2008-02-20,327.27273
2008-02-21,769.58678
2008-02-22,759.66942
2008-02-23,682.31405
2008-02-24,664.46281
2008-02-25,662.47934
2008-02-26,662.47934
2008-02-27,644.6281
2008-02-28,632.72727
2008-02-29,805.28926
2008-03-01,1311.07438
2008-03-02,1303.1405
2008-03-03,1309.09091
2008-03-04,1693.8843
2008-03-05,1741.4876
2008-03-06,1906.1157
2008-03-07,1676.03306
2008-03-08,1763.30579
2008-03-09,1777.19008
2008-03-10,2120.33058
2008-03-11,2532.89256
2008-03-12,2937.52066
2008-03-13,2931.57025
2008-03-14,2945.45455
2008-03-15,3197.35537
2008-03-16,3276.69421
2008-03-17,3217.19008
2008-03-18,3205.28926
2008-03-19,3201.32231
2008-03-20,3207.27273
2008-03-21,3356.03306
2008-03-22,3540.49587
2008-03-23,3518.67769
2008-03-24,3641.65289
2008-03-25,3750.7438
2008-03-26,3927.27273
2008-03-27,4052.2314
2008-03-28,3951.07438
2008-03-29,3929.2562
2008-03-30,3873.71901
2008-03-31,3806.28099
2008-04-01,3798.34711
2008-04-02,3935.20661
2008-04-03,3893.55372
2008-04-04,3484.95868
2008-04-05,3286.61157
2008-04-06,3280.66116
2008-04-07,3403.63636
2008-04-08,3479.00826
2008-04-09,3260.82645
2008-04-10,2999.00826
2008-04-11,3022.80992
2008-04-12,3094.21488
2008-04-13,3094.21488
2008-04-14,3304.46281
2008-04-15,3377.85124
2008-04-16,3272.72727
2008-04-17,3028.76033
2008-04-18,2848.26446
2008-04-19,2786.77686
2008-04-20,2800.66116
2008-04-21,2856.19835
2008-04-22,2935.53719
2008-04-23,3163.63636
2008-04-24,3274.71074
2008-04-25,3054.54545
2008-04-26,2770.90909
2008-04-27,2743.1405
2008-04-28,2822.47934
2008-04-29,2830.41322
2008-04-30,2800.66116
2008-05-01,2881.98347
2008-05-02,2852.2314
2008-05-03,2820.49587
2008-05-04,2820.49587
2008-05-05,3048.59504
2008-05-06,3270.7438
2008-05-07,3518.67769
2008-05-08,3421.4876
2008-05-09,3270.7438
2008-05-10,3199.33884
2008-05-11,3227.10744
2008-05-12,3360.0
2008-05-13,3457.19008
2008-05-14,3645.61983
2008-05-15,3651.57025
2008-05-16,3375.86777
2008-05-17,3213.22314
2008-05-18,3215.20661
2008-05-19,3223.1405
2008-05-20,3215.20661
2008-05-21,3290.57851
2008-05-22,3334.21488
2008-05-23,3318.34711
2008-05-24,3332.2314
2008-05-25,3340.16529
2008-05-26,3348.09917
2008-05-27,3326.28099
2008-05-28,3494.87603
2008-05-29,3639.66942
2008-05-30,3685.28926
2008-05-31,3879.66942
2008-06-01,3962.97521
2008-06-02,3806.28099
2008-06-03,3728.92562
2008-06-04,3869.75207
2008-06-05,3695.20661
2008-06-06,3538.5124
2008-06-07,3669.42149
2008-06-08,3665.45455
2008-06-09,3847.93388
2008-06-10,4210.90909
2008-06-11,4296.19835
2008-06-12,4381.4876
2008-06-13,4145.45455
2008-06-14,3925.28926
2008-06-15,3923.30579
2008-06-16,4195.04132
2008-06-17,4500.49587
2008-06-18,4772.2314
2008-06-19,4623.47107
2008-06-20,4268.42975
2008-06-21,4236.69421
2008-06-22,4268.42975
2008-06-23,4284.29752
2008-06-24,4270.41322
2008-06-25,4405.28926
2008-06-26,4393.38843
2008-06-27,4355.70248
2008-06-28,4427.10744
2008-06-29,4429.09091
2008-06-30,4423.1405
2008-07-01,4391.40496
2008-07-02,4345.78512
2008-07-03,4050.24793
2008-07-04,3951.07438
2008-07-05,4042.31405
2008-07-06,4054.21488
2008-07-07,3929.2562
2008-07-08,3621.81818
2008-07-09,2520.99174
2008-07-10,1209.91736
2008-07-11,1247.60331
2008-07-12,1235.70248
2008-07-13,1213.8843
2008-07-14,1600.66116
2008-07-15,1886.28099
2008-07-16,2245.28926
2008-07-17,2528.92562
2008-07-18,2520.99174
2008-07-19,2626.1157
2008-07-20,2647.93388
2008-07-21,2647.93388
2008-07-22,2467.43802
2008-07-23,2778.84298
2008-07-24,2749.09091
2008-07-25,2671.73554
2008-07-26,1386.44628
2008-07-27,3.96694
2008-07-28,3.96694
2008-07-29,862.80992
2008-07-30,1622.47934
2008-07-31,1640.33058
2008-08-01,1902.14876
2008-08-02,2110.41322
2008-08-03,2221.4876
2008-08-04,2330.57851
2008-08-05,2479.33884
2008-08-06,2985.12397
2008-08-07,3163.63636
2008-08-08,3173.55372
2008-08-09,3233.05785
2008-08-10,3219.17355
2008-08-11,3544.46281
2008-08-12,3927.27273
2008-08-13,4046.28099
2008-08-14,4052.2314
2008-08-15,3732.89256
2008-08-16,3332.2314
2008-08-17,3199.33884
2008-08-18,3000.99174
2008-08-19,2931.57025
2008-08-20,2929.58678
2008-08-21,2796.69421
2008-08-22,2759.00826
2008-08-23,2768.92562
2008-08-24,2776.8595
2008-08-25,2935.53719
2008-08-26,2961.32231
2008-08-27,2661.81818
2008-08-28,2320.66116
2008-08-29,1918.01653
2008-08-30,1747.43802
2008-08-31,1783.1405
2008-09-01,1370.57851
2008-09-02,1170.24793
2008-09-03,1495.53719
2008-09-04,1219.83471
2008-09-05,1289.2562
2008-09-06,1564.95868
2008-09-07,1564.95868
2008-09-08,1507.43802
2008-09-09,1604.6281
2008-09-10,1876.36364
2008-09-11,904.46281
2008-09-12,1134.54545
2008-09-13,1065.12397
2008-09-14,1055.20661
2008-09-15,1055.20661
2008-09-16,1045.28926
2008-09-17,1414.21488
2008-09-18,1503.47107
2008-09-19,1923.96694
2008-09-20,2062.80992
2008-09-21,2064.79339
2008-09-22,2148.09917
2008-09-23,2473.38843
2008-09-24,2840.33058
2008-09-25,2874.04959
2008-09-26,2628.09917
2008-09-27,2453.55372
2008-09-28,2443.63636
2008-09-29,2318.67769
2008-09-30,2346.44628
2008-10-01,2636.03306
2008-10-02,2749.09091
2008-10-03,2340.49587
2008-10-04,1886.28099
2008-10-05,1902.14876
2008-10-06,2025.12397
2008-10-07,1906.1157
2008-10-08,1735.53719
2008-10-09,1737.52066
2008-10-10,1846.61157
2008-10-11,2177.85124
2008-10-12,2160.0
2008-10-13,2600.33058
2008-10-14,2711.40496
2008-10-15,2520.99174
2008-10-16,2015.20661
2008-10-17,1592.72727
2008-10-18,1406.28099
2008-10-19,1253.55372
2008-10-20,1015.53719
2008-10-21,505.78512
2008-10-22,472.06612
2008-10-23,351.07438
2008-10-24,7.93388
2008-10-25,7.93388
2008-10-26,7.93388
2008-10-27,7.93388
2008-10-28,7.93388
2008-10-29,7.93388
2008-10-30,7.93388
2008-10-31,7.93388
2008-11-01,7.93388
2008-11-02,7.93388
2008-11-03,7.93388
2008-11-04,7.93388
2008-11-05,7.93388
2008-11-06,7.93388
2008-11-07,7.93388
2008-11-08,7.93388
2008-11-09,7.93388
2008-11-10,7.93388
2008-11-11,7.93388
2008-11-12,7.93388
2008-11-13,7.93388
2008-11-14,7.93388
2008-11-15,7.93388
2008-11-16,7.93388
2008-11-17,7.93388
2008-11-18,7.93388
2008-11-19,7.93388
2008-11-20,7.93388
2008-11-21,7.93388
2008-11-22,7.93388
2008-11-23,7.93388
2008-11-24,7.93388
2008-11-25,7.93388
2008-11-26,7.93388
2008-11-27,7.93388
2008-11-28,7.93388
2008-11-29,7.93388
2008-11-30,7.93388
2008-12-01,3.96694
2008-12-02,3.96694
2008-12-03,3.96694
2008-12-04,3.96694
2008-12-05,3.96694
2008-12-06,3.96694
2008-12-07,3.96694
2008-12-08,3.96694
2008-12-09,3.96694
2008-12-10,3.96694
2008-12-11,3.96694
2008-12-12,3.96694
2008-12-13,3.96694
2008-12-14,3.96694
2008-12-15,3.96694
2008-12-16,3.96694
2008-12-17,3.96694
2008-12-18,3.96694
2008-12-19,3.96694
2008-12-20,3.96694
2008-12-21,3.96694
2008-12-22,3.96694
2008-12-23,3.96694
2008-12-24,3.96694
2008-12-25,3.96694
2008-12-26,3.96694
2008-12-27,3.96694
2008-12-28,3.96694
2008-12-29,3.96694
2008-12-30,3.96694
2008-12-31,3.96694
2009-01-01,3.96694
2009-01-02,3.96694
2009-01-03,3.96694
2009-01-04,3.96694
2009-01-05,3.96694
2009-01-06,3.96694
2009-01-07,3.96694
2009-01-08,3.96694
2009-01-09,3.96694
2009-01-10,1.98347
2009-01-11,1.98347
2009-01-12,1.98347
2009-01-13,1.98347
2009-01-14,1.98347
2009-01-15,1.98347
2009-01-16,1.98347
2009-01-17,1.98347
2009-01-18,1.98347
2009-01-19,1.98347
2009-01-20,1.98347
2009-01-21,1.98347
2009-01-22,1.98347
2009-01-23,1.98347
2009-01-24,1.98347
2009-01-25,1.98347
2009-01-26,1.98347
2009-01-27,1.98347
2009-01-28,1.98347
2009-01-29,1.98347
2009-01-30,1.98347
2009-01-31,1.98347
2009-02-01,1.98347
2009-02-02,1.98347
2009-02-03,1.98347
2009-02-04,1.98347
2009-02-05,1.98347
2009-02-06,1.98347
2009-02-07,1.98347
2009-02-08,1.98347
2009-02-09,1.98347
2009-02-10,1.98347
2009-02-11,1.98347
2009-02-12,1.98347
2009-02-13,1.98347
2009-02-14,1.98347
2009-02-15,1.98347
2009-02-16,1.98347
2009-02-17,77.35537
2009-02-18,612.89256
2009-02-19,850.90909
2009-02-20,813.22314
2009-02-21,793.38843
2009-02-22,813.22314
2009-02-23,793.38843
2009-02-24,837.02479
2009-02-25,993.71901
2009-02-26,1053.22314
2009-02-27,1200.0
2009-02-28,1362.64463
2009-03-01,1382.47934
2009-03-02,1372.56198
2009-03-03,1372.56198
2009-03-04,1342.80992
2009-03-05,1273.38843
2009-03-06,1243.63636
2009-03-07,1386.44628
2009-03-08,1493.55372
2009-03-09,1513.38843
2009-03-10,2082.64463
2009-03-11,2622.14876
2009-03-12,2681.65289
2009-03-13,3044.6281
2009-03-14,3441.32231
2009-03-15,3451.23967
2009-03-16,3601.98347
2009-03-17,3768.59504
2009-03-18,3877.68595
2009-03-19,4072.06612
2009-03-20,4121.65289
2009-03-21,4181.15702
2009-03-22,4171.23967
2009-03-23,4300.16529
2009-03-24,4625.45455
2009-03-25,4841.65289
2009-03-26,4621.4876
2009-03-27,4115.70248
2009-03-28,3740.82645
2009-03-29,3772.56198
2009-03-30,3762.64463
2009-03-31,3772.56198
2009-04-01,3861.81818
2009-04-02,3715.04132
2009-04-03,3371.90083
2009-04-04,3161.65289
2009-04-05,3112.06612
2009-04-06,3072.39669
2009-04-07,2927.60331
2009-04-08,2852.2314
2009-04-09,2881.98347
2009-04-10,2921.65289
2009-04-11,2852.2314
2009-04-12,2891.90083
2009-04-13,3062.47934
2009-04-14,3171.57025
2009-04-15,3272.72727
2009-04-16,3322.31405
2009-04-17,3108.09917
2009-04-18,2981.15702
2009-04-19,2991.07438
2009-04-20,3171.57025
2009-04-21,3441.32231
2009-04-22,3391.73554
2009-04-23,3092.2314
2009-04-24,2913.71901
2009-04-25,2911.73554
2009-04-26,2911.73554
2009-04-27,2872.06612
2009-04-28,2743.1405
2009-04-29,2592.39669
2009-04-30,2491.23967
2009-05-01,2604.29752
2009-05-02,2731.23967
2009-05-03,2731.23967
2009-05-04,2911.73554
2009-05-05,3177.52066
2009-05-06,3431.40496
2009-05-07,3542.47934
2009-05-08,3381.81818
2009-05-09,3312.39669
2009-05-10,3322.31405
2009-05-11,3471.07438
2009-05-12,3693.22314
2009-05-13,3762.64463
2009-05-14,3802.31405
2009-05-15,3679.33884
2009-05-16,3611.90083
2009-05-17,3641.65289
2009-05-18,3611.90083
2009-05-19,3631.73554
2009-05-20,3760.66116
2009-05-21,3506.77686
2009-05-22,2862.14876
2009-05-23,2253.22314
2009-05-24,2062.80992
2009-05-25,2062.80992
2009-05-26,2114.38017
2009-05-27,2451.57025
2009-05-28,2491.23967
2009-05-29,2265.12397
2009-05-30,2211.57025
2009-05-31,2211.57025
2009-06-01,2392.06612
2009-06-02,2701.4876
2009-06-03,2881.98347
2009-06-04,2842.31405
2009-06-05,2893.8843
2009-06-06,3082.31405
2009-06-07,3052.56198
2009-06-08,3231.07438
2009-06-09,3655.53719
2009-06-10,3980.82645
2009-06-11,4000.66116
2009-06-12,3972.89256
2009-06-13,4072.06612
2009-06-14,4091.90083
2009-06-15,4081.98347
2009-06-16,4171.23967
2009-06-17,4450.90909
2009-06-18,4532.2314
2009-06-19,4530.24793
2009-06-20,4591.73554
2009-06-21,4490.57851
2009-06-22,4601.65289
2009-06-23,4659.17355
2009-06-24,4321.98347
2009-06-25,4072.06612
2009-06-26,3719.00826
2009-06-27,3552.39669
2009-06-28,3572.2314
2009-06-29,3197.35537
2009-06-30,2612.2314
2009-07-01,2392.06612
2009-07-02,2191.73554
2009-07-03,2142.14876
2009-07-04,975.86777
2009-07-05,1711.73554
2009-07-06,2346.44628
2009-07-07,3133.8843
2009-07-08,3479.00826
2009-07-09,3782.47934
2009-07-10,3959.00826
2009-07-11,4220.82645
2009-07-12,4210.90909
2009-07-13,4405.28926
2009-07-14,4780.16529
2009-07-15,5101.4876
2009-07-16,5190.7438
2009-07-17,4855.53719
2009-07-18,4621.4876
2009-07-19,4591.73554
2009-07-20,4841.65289
2009-07-21,5115.3719
2009-07-22,4920.99174
2009-07-23,4631.40496
2009-07-24,4375.53719
2009-07-25,4000.66116
2009-07-26,4010.57851
2009-07-27,4010.57851
2009-07-28,3845.95041
2009-07-29,3822.14876
2009-07-30,3921.32231
2009-07-31,3962.97521
2009-08-01,4091.90083
2009-08-02,4101.81818
2009-08-03,4171.23967
2009-08-04,4199.00826
2009-08-05,3891.57025
2009-08-06,3455.20661
2009-08-07,3540.49587
2009-08-08,3611.90083
2009-08-09,3601.98347
2009-08-10,3611.90083
2009-08-11,3609.91736
2009-08-12,3681.32231
2009-08-13,3701.15702
2009-08-14,3552.39669
2009-08-15,3552.39669
2009-08-16,3552.39669
2009-08-17,3542.47934
2009-08-18,3550.41322
2009-08-19,3582.14876
2009-08-20,3792.39669
2009-08-21,3970.90909
2009-08-22,3802.31405
2009-08-23,3691.23967
2009-08-24,3687.27273
2009-08-25,3421.4876
2009-08-26,3225.12397
2009-08-27,3082.31405
2009-08-28,3711.07438
2009-08-29,4230.7438
2009-08-30,4052.2314
2009-08-31,4026.44628
2009-09-01,3974.87603
2009-09-02,3980.82645
2009-09-03,3661.4876
2009-09-04,3112.06612
2009-09-05,2832.39669
2009-09-06,2802.64463
2009-09-07,2792.72727
2009-09-08,2122.31405
2009-09-09,1557.02479
2009-09-10,1485.61983
2009-09-11,1322.97521
2009-09-12,1172.2314
2009-09-13,1162.31405
2009-09-14,1092.89256
2009-09-15,1088.92562
2009-09-16,922.31405
2009-09-17,723.96694
2009-09-18,783.47107
2009-09-19,825.12397
2009-09-20,825.12397
2009-09-21,763.63636
2009-09-22,676.36364
2009-09-23,692.2314
2009-09-24,634.71074
2009-09-25,585.12397
2009-09-26,604.95868
2009-09-27,606.94215
2009-09-28,608.92562
2009-09-29,692.2314
2009-09-30,787.43802
2009-10-01,795.3719
2009-10-02,819.17355
2009-10-03,876.69421
2009-10-04,876.69421
2009-10-05,835.04132
2009-10-06,696.19835
2009-10-07,585.12397
2009-10-08,591.07438
2009-10-09,743.80165
2009-10-10,884.6281
2009-10-11,882.64463
2009-10-12,878.67769
2009-10-13,450.24793
2009-10-14,9.91736
2009-10-15,9.91736
2009-10-16,9.91736
2009-10-17,9.91736
2009-10-18,9.91736
2009-10-19,9.91736
2009-10-20,9.91736
2009-10-21,9.91736
2009-10-22,9.91736
2009-10-23,9.91736
2009-10-24,7.93388
2009-10-25,7.93388
2009-10-26,7.93388
2009-10-27,7.93388
2009-10-28,3.96694
2009-10-29,3.96694
2009-10-30,3.96694
2009-10-31,3.96694
2009-11-01,1.98347
2009-11-02,1.98347
2009-11-03,1.98347
2009-11-04,1.98347
2009-11-05,1.98347
2009-11-06,1.98347
2009-11-07,1.98347
2009-11-08,1.98347
2009-11-09,1.98347
2009-11-10,1.98347
2009-11-11,1.98347
2009-11-12,1.98347
2009-11-13,1.98347
2009-11-14,1.98347
2009-11-15,1.98347
2009-11-16,1.98347
2009-11-17,1.98347
2009-11-18,1.98347
2009-11-19,1.98347
2009-11-20,1.98347
2009-11-21,1.98347
2009-11-22,1.98347
2009-11-23,1.98347
2009-11-24,1.98347
2009-11-25,1.98347
2009-11-26,1.98347
2009-11-27,1.98347
2009-11-28,1.98347
2009-11-29,1.98347